Theta_e
280 280 280 281 281 282 283 285 286 287 289 290 291 293 294 295 299 300 301 302 302 302 304 306 307 310 313 315 316 317 316 315 310 292 292 292 291 293 294 297 298 300 301
280 280 280 280 281 282 283 285 287 288 290 290 292 291 292 293 294 297 299 299 299 299 300 301 303 305 308 312 313 313 313 315 303 294 286 288 287 287 290 291 292 294 298
278 279 279 280 282 283 284 286 288 289 289 288 289 289 290 291 292 292 294 295 296 296 297 298 298 300 303 308 310 311 313 308 303 294 287 286 286 287 286 286 286 286 289
277 277 278 280 282 284 285 285 286 287 287 287 287 287 288 289 290 290 291 291 291 291 291 292 293 295 297 303 306 308 311 310 302 296 288 286 286 285 287 287 285 286 285
276 275 277 280 282 284 284 285 286 286 286 286 286 286 287 288 289 288 288 288 288 288 287 288 288 287 289 293 301 307 306 304 301 294 287 286 285 286 287 287 285 284 283
273 274 277 279 280 281 283 284 284 284 284 285 285 285 285 287 289 289 287 286 286 286 285 286 287 286 289 291 292 292 297 304 298 294 288 289 287 288 287 287 285 285 283
272 273 277 278 278 279 281 281 282 283 283 283 284 285 285 286 287 287 285 285 284 284 285 285 285 285 286 286 288 288 287 291 296 299 294 291 288 289 288 286 287 285 280
273 274 277 278 278 278 279 280 280 281 281 282 283 284 284 285 287 286 285 284 284 283 284 285 285 285 285 285 284 284 285 286 286 287 288 287 289 289 289 288 284 280 280
274 275 277 278 278 278 278 279 280 281 281 281 283 283 283 284 287 287 285 283 283 283 284 284 285 285 286 285 281 280 280 281 286 289 290 290 290 289 287 286 283 283 278
274 276 278 279 279 278 279 279 280 281 280 281 281 282 283 284 286 286 284 283 281 281 282 284 285 284 285 284 281 280 277 277 279 278 278 278 278 279 281 280 284 282 279
275 277 277 279 280 280 279 279 279 279 279 279 279 280 281 283 284 285 284 282 281 280 280 281 283 284 285 284 282 280 278 278 278 277 276 275 274 272 272 273 273 277 278
274 275 275 276 278 279 278 278 278 278 277 277 277 278 278 279 283 284 283 282 281 278 277 278 280 283 283 282 280 281 280 278 276 274 273 272 270 270 270 270 270 270 270
271 270 272 274 276 277 276 276 276 276 276 275 275 275 276 277 277 279 281 281 280 278 278 279 278 278 277 277 278 277 275 274 274 271 270 269 269 270 271 270 270 270 269
267 268 270 272 273 273 274 274 274 273 273 274 274 274 275 276 276 276 275 274 275 274 275 274 276 275 275 272 271 271 271 271 271 270 269 269 270 269 268 269 269 270 269
270 269 271 271 272 273 274 274 274 274 275 273 273 274 275 277 278 279 277 275 274 274 270 271 270 270 269 268 268 267 268 269 268 268 268 268 267 267 266 267 267 268 266
269 269 269 270 270 271 273 276 281 280 280 281 280 278 279 282 281 281 280 278 277 274 268 267 267 267 266 266 266 266 265 266 266 267 266 267 266 266 265 265 265 265 264
269 269 268 269 269 269 269 269 269 273 277 278 279 279 280 280 280 279 278 276 275 271 266 265 265 265 264 264 264 264 263 262 263 264 264 264 264 263 264 263 263 263 261
267 267 268 267 268 267 268 267 266 266 265 265 270 276 277 277 277 276 275 268 264 263 261 262 262 263 263 263 262 261 261 261 261 261 261 261 261 262 262 261 261 261 260
266 266 266 266 265 266 266 265 264 263 262 261 261 267 263 271 271 272 271 262 261 259 259 260 260 261 261 260 259 259 259 259 258 259 258 259 259 260 258 259 259 257 258
266 266 265 266 264 264 264 265 263 262 261 260 260 261 260 261 260 258 258 258 259 258 258 258 257 257 258 258 258 258 257 257 257 257 256 257 258 260 258 257 259 259 258
266 266 266 264 264 264 263 264 263 261 260 258 260 259 265 260 258 257 256 256 258 257 257 257 255 255 255 255 256 257 258 257 256 256 256 256 257 256 256 257 256 256 256
265 265 264 264 262 262 261 262 261 260 259 259 258 259 268 258 257 256 256 255 254 254 254 256 255 256 255 256 256 257 257 256 255 255 255 254 255 254 254 254 254 253 254
264 263 262 259 262 259 259 258 259 259 258 258 258 259 257 256 256 256 256 253 252 252 251 253 254 253 251 252 254 257 257 256 256 255 255 254 254 254 254 255 253 253 254
263 263 263 262 260 260 261 259 258 257 258 257 257 257 258 256 256 256 254 253 252 251 250 251 253 254 252 252 252 252 253 252 253 254 254 254 253 251 252 252 252 252 252
263 262 262 262 261 261 259 258 258 257 257 257 255 256 255 254 254 254 253 252 251 252 252 251 251 252 253 252 251 251 250 255 250 249 250 252 252 250 250 251 250 250 249
262 262 262 260 259 259 259 258 257 257 256 256 256 255 256 255 255 253 252 251 251 251 251 251 251 251 252 252 252 253 251 254 251 249 250 251 251 250 249 250 249 250 250
Wind_Speed
11 12 13 13 13 12 12 13 13 13 13 13 12 11 11 12 6 6 7 5 4 5 7 7 5 3 3 3 5 7 8 7 5 1 2 2 2 3 3 4 3 3 1
11 12 13 13 12 12 12 12 12 12 9 10 8 8 8 8 7 5 5 4 4 7 6 7 6 3 5 4 5 8 7 8 4 5 2 2 2 3 4 5 3 4 6
11 12 13 12 12 12 12 11 9 8 8 7 6 6 6 5 5 4 4 1 1 2 1 3 4 6 7 4 4 5 6 5 5 5 5 2 2 1 4 4 4 6 6
11 11 12 11 12 10 11 10 8 7 7 7 6 6 6 4 4 3 3 3 2 4 3 3 1 2 5 7 6 6 6 7 5 6 5 3 3 2 3 5 5 4 5
9 9 9 10 10 10 9 8 7 7 7 6 5 6 7 6 4 4 3 1 5 3 3 4 4 4 3 4 4 4 6 5 6 5 3 3 3 5 9 5 4 5 5
8 8 8 9 9 9 9 8 7 7 7 8 9 7 8 6 10 6 5 4 5 5 3 4 4 5 10 15 16 18 6 6 7 5 4 5 8 9 5 8 9 8 4
7 7 8 8 8 9 9 10 10 10 9 9 9 8 6 4 9 10 10 6 7 6 5 4 5 5 5 6 13 16 14 15 6 8 11 7 9 12 12 12 10 3 5
6 6 8 8 8 8 8 9 8 8 9 8 9 9 7 8 14 15 15 10 9 9 7 7 8 9 8 9 12 14 14 13 7 6 8 7 8 10 10 8 8 11 9
6 7 7 7 7 7 8 8 7 7 9 9 8 10 9 11 18 18 13 10 11 12 12 12 10 10 16 16 13 13 13 14 22 29 27 25 25 23 17 12 8 11 3
6 7 6 6 6 7 7 7 7 6 7 6 10 12 14 13 23 23 14 7 9 8 11 13 24 17 23 19 12 11 13 8 8 10 11 18 18 23 25 13 3 7 4
5 5 5 5 5 5 5 5 5 5 6 8 9 11 13 14 18 25 22 10 8 9 10 11 11 26 26 26 22 13 11 8 12 10 11 11 14 14 12 12 11 7 3
4 4 4 4 4 4 5 5 6 6 8 9 10 9 9 11 21 23 24 23 18 11 10 9 12 26 26 25 18 22 20 14 9 9 10 11 12 10 11 12 12 12 12
2 3 3 4 4 4 5 5 4 6 7 7 7 7 8 8 8 19 22 22 21 13 8 16 20 22 23 20 25 21 13 8 8 10 10 9 9 8 8 9 9 13 15
3 1 2 3 4 4 4 4 5 5 5 5 6 6 5 6 7 7 7 7 12 9 11 10 16 17 20 15 11 13 10 9 8 8 8 7 6 6 7 5 6 7 9
3 2 3 3 3 4 4 3 4 3 5 4 3 3 4 6 7 10 8 5 4 8 6 7 7 8 9 9 9 9 8 7 8 7 7 7 7 6 5 3 4 5 6
4 3 3 3 2 3 3 4 13 12 12 12 12 7 5 10 10 13 13 14 12 8 5 5 7 7 7 6 7 7 7 7 7 6 6 6 7 7 7 7 7 7 8
6 5 3 4 3 3 3 3 4 7 16 15 15 12 11 10 14 12 13 16 12 8 6 5 6 5 5 6 6 6 5 5 4 6 6 6 7 7 7 7 7 7 8
5 7 5 4 4 3 4 3 3 2 2 2 8 12 11 10 8 7 7 8 6 8 4 4 4 4 5 5 5 5 5 5 5 5 6 6 5 5 6 7 6 7 7
7 5 4 4 4 4 4 3 3 3 2 1 2 2 5 6 7 9 7 3 3 3 3 4 3 4 5 5 5 5 5 5 4 5 5 5 5 6 6 6 7 7 6
6 8 6 5 4 4 3 4 3 3 3 3 1 1 3 3 2 3 4 3 3 3 3 4 3 3 4 4 4 5 5 5 5 5 5 5 4 5 6 6 5 6 4
7 7 8 5 5 5 5 5 4 4 3 4 3 3 7 4 4 3 3 4 4 4 5 5 4 4 4 4 4 4 4 4 4 5 5 4 4 5 4 5 5 5 5
7 7 6 6 4 4 4 4 4 4 4 4 3 2 8 3 3 3 3 3 3 3 2 4 4 4 4 5 5 5 5 6 5 5 5 4 5 5 4 4 4 3 3
7 7 6 4 4 4 3 3 4 4 4 4 4 4 3 4 4 4 4 3 3 3 2 3 4 3 2 2 2 3 5 5 5 5 6 5 5 5 4 4 4 3 2
7 8 7 6 5 4 4 5 4 5 5 4 4 3 4 4 4 4 3 3 3 3 2 3 3 4 4 3 2 2 2 2 3 4 6 5 5 4 3 2 3 2 2
7 8 8 8 7 7 5 4 5 4 5 5 5 4 4 4 4 4 4 4 3 4 4 4 3 4 6 7 6 6 5 6 5 5 4 5 6 7 4 2 3 3 3
8 8 7 6 6 6 6 6 5 5 6 5 5 5 5 5 4 4 4 4 4 3 4 3 5 7 6 5 6 6 6 7 6 7 5 4 5 4 4 4 6 3 4
Wind_Direction
306 306 305 295 293 285 279 279 276 279 279 279 278 284 295 310 284 198 205 158 171 205 213 211 194 231 245 240 205 217 212 196 189 108 78 76 86 130 101 90 115 121 228
310 309 300 294 291 290 284 283 286 283 279 283 284 296 301 311 308 290 162 163 170 212 207 214 219 231 237 225 210 202 200 194 143 135 112 161 115 64 81 89 73 56 65
314 312 308 302 307 307 304 303 299 305 303 302 301 294 299 303 310 357 316 91 204 270 251 211 221 235 236 230 217 217 194 186 120 139 143 113 94 131 91 68 63 60 59
315 315 312 314 318 317 318 323 328 332 334 335 327 315 311 329 332 308 343 43 59 44 12 359 324 236 250 238 231 202 202 184 155 131 110 139 128 108 108 135 96 43 68
318 312 312 321 326 332 335 338 345 352 351 342 344 348 347 358 1 5 22 18 75 67 50 57 34 17 59 225 253 206 186 164 156 140 110 112 133 154 173 159 122 111 50
319 311 318 340 341 343 345 352 359 359 359 3 8 6 2 349 9 48 64 64 72 60 38 49 55 32 45 49 60 60 44 191 170 146 135 154 161 175 149 155 143 147 132
315 316 340 346 349 354 356 8 10 10 13 15 14 13 14 6 51 65 68 62 64 51 33 31 48 32 42 60 56 52 41 40 75 177 175 170 163 172 154 149 157 113 99
326 333 342 350 357 357 11 16 18 18 17 18 15 17 22 39 60 71 69 65 64 54 44 52 65 62 57 79 78 65 53 42 30 70 88 97 108 134 141 118 111 102 97
343 340 340 348 356 1 14 12 13 23 28 22 19 23 40 47 50 52 55 59 59 56 52 48 55 65 72 76 80 83 72 60 56 73 83 93 99 106 117 111 120 125 91
338 327 330 348 6 8 10 12 13 19 26 29 34 32 37 48 50 50 47 59 62 59 53 53 59 64 66 62 66 74 73 48 64 73 68 64 62 62 55 56 88 115 108
315 319 341 357 3 12 20 16 14 25 34 34 41 37 33 38 48 52 49 49 55 59 53 51 52 63 66 68 67 62 60 56 54 59 73 67 62 57 53 50 40 60 88
314 333 349 0 8 15 31 26 21 23 36 34 38 42 36 33 44 53 57 60 53 59 51 45 51 63 65 63 60 63 66 63 60 57 61 61 70 63 62 68 63 64 59
23 358 347 25 25 20 41 36 37 30 40 32 32 33 31 29 37 41 50 57 59 63 62 68 62 56 54 54 58 57 52 54 65 66 65 65 67 73 84 79 79 83 72
118 53 8 49 51 38 52 55 63 51 54 47 42 34 28 41 39 35 38 40 52 59 60 58 69 71 70 65 53 46 48 50 67 80 79 68 62 60 64 55 74 78 74
143 131 98 76 73 73 74 97 92 113 89 67 43 30 27 59 67 72 68 64 61 74 62 54 49 47 53 52 53 49 46 51 62 67 78 81 77 79 71 64 74 73 91
160 161 153 122 84 73 64 65 73 79 81 76 78 56 24 64 86 73 64 64 74 79 54 68 66 62 65 65 68 66 53 60 65 78 80 85 89 86 85 71 70 74 86
168 168 158 140 130 117 87 80 92 43 54 49 43 67 59 57 57 60 60 62 67 76 83 86 94 85 76 67 65 57 57 44 43 66 74 77 81 77 84 81 79 82 77
175 166 163 159 145 136 138 133 119 107 80 22 16 40 54 60 57 58 70 58 44 36 45 81 92 100 111 114 105 100 96 85 75 80 83 79 80 95 92 84 81 91 86
173 175 169 160 159 152 147 141 136 136 130 129 343 15 21 43 69 67 92 93 113 97 100 101 105 109 100 87 77 73 80 81 78 81 68 76 75 89 87 91 91 83 95
177 172 166 167 160 160 166 164 167 167 159 170 187 245 326 24 47 35 51 99 108 118 130 121 115 104 106 111 113 114 110 110 109 104 105 104 99 104 110 110 107 109 90
175 169 167 158 172 175 169 183 179 165 175 183 194 200 181 146 148 140 143 143 146 148 147 142 145 135 132 131 131 127 116 118 110 110 108 102 109 101 92 89 96 89 103
164 169 168 178 162 172 181 175 173 171 171 177 193 231 111 99 126 138 144 140 135 131 144 152 147 149 157 160 157 146 144 140 142 137 127 122 120 115 111 109 111 109 118
156 159 160 156 163 158 161 171 165 170 178 185 176 162 151 158 163 164 166 161 163 155 151 162 154 149 153 154 175 167 156 169 167 153 143 144 144 142 147 145 147 141 158
159 163 166 167 163 173 177 183 184 184 174 171 183 181 165 166 176 185 178 169 166 159 166 169 172 165 164 172 180 182 169 158 159 163 147 148 154 151 140 129 156 146 155
166 162 168 173 178 185 175 179 181 182 182 178 184 182 181 174 180 190 186 184 181 179 186 190 192 191 194 192 196 198 197 167 162 156 151 151 159 165 162 163 157 168 163
171 170 165 156 166 170 178 181 187 186 189 185 181 184 181 181 184 182 188 192 195 199 204 207 211 212 210 215 215 204 194 195 174 173 162 162 165 174 178 187 177 183 183